Year,Month,Day,Hour,Minute,Value (Times are PST for temperature in C)
2019,07,13,00,00,16.60
2019,07,13,00,01,16.60
2019,07,13,00,02,16.60
2019,07,13,00,03,16.60
2019,07,13,00,04,16.60
2019,07,13,00,05,16.60
2019,07,13,00,06,16.60
2019,07,13,00,07,16.60
2019,07,13,00,08,16.50
2019,07,13,00,09,16.50
2019,07,13,00,10,16.50
2019,07,13,00,11,16.50
2019,07,13,00,12,16.50
2019,07,13,00,13,16.50
2019,07,13,00,14,16.50
2019,07,13,00,15,16.50
2019,07,13,00,16,16.50
2019,07,13,00,17,16.50
2019,07,13,00,18,16.60
2019,07,13,00,19,16.60
2019,07,13,00,20,16.60
2019,07,13,00,21,16.60
2019,07,13,00,22,16.60
2019,07,13,00,23,16.60
2019,07,13,00,24,16.50
2019,07,13,00,25,16.50
2019,07,13,00,26,16.50
2019,07,13,00,27,16.50
2019,07,13,00,28,16.50
2019,07,13,00,29,16.50
2019,07,13,00,30,16.50
2019,07,13,00,31,16.50
2019,07,13,00,32,16.50
2019,07,13,00,33,16.50
2019,07,13,00,34,16.50
2019,07,13,00,35,16.50
2019,07,13,00,36,16.50
2019,07,13,00,37,16.40
2019,07,13,00,38,16.40
2019,07,13,00,39,16.40
2019,07,13,00,40,16.40
2019,07,13,00,41,16.40
2019,07,13,00,42,16.40
2019,07,13,00,43,16.40
2019,07,13,00,44,16.40
2019,07,13,00,45,16.40
2019,07,13,00,46,16.30
2019,07,13,00,47,16.40
2019,07,13,00,48,16.30
2019,07,13,00,49,16.30
2019,07,13,00,50,16.30
2019,07,13,00,51,16.30
2019,07,13,00,52,16.30
2019,07,13,00,53,16.30
2019,07,13,00,54,16.30
2019,07,13,00,55,16.30
2019,07,13,00,56,16.30
2019,07,13,00,57,16.30
2019,07,13,00,58,16.20
2019,07,13,00,59,16.20
2019,07,13,01,00,16.20
2019,07,13,01,01,16.20
2019,07,13,01,02,16.20
2019,07,13,01,03,16.20
2019,07,13,01,04,16.20
2019,07,13,01,05,16.20
2019,07,13,01,06,16.20
2019,07,13,01,07,16.20
2019,07,13,01,08,16.10
2019,07,13,01,09,16.10
2019,07,13,01,10,16.10
2019,07,13,01,11,16.10
2019,07,13,01,12,16.10
2019,07,13,01,13,16.10
2019,07,13,01,14,16.10
2019,07,13,01,15,16.10
2019,07,13,01,16,16.10
2019,07,13,01,17,16.10
2019,07,13,01,18,16.10
2019,07,13,01,19,16.10
2019,07,13,01,20,16.10
2019,07,13,01,21,16.10
2019,07,13,01,22,16.10
2019,07,13,01,23,16.10
2019,07,13,01,24,16.10
2019,07,13,01,25,16.10
2019,07,13,01,26,16.10
2019,07,13,01,27,16.10
2019,07,13,01,28,16.10
2019,07,13,01,29,16.10
2019,07,13,01,30,16.10
2019,07,13,01,31,16.10
2019,07,13,01,32,16.10
2019,07,13,01,33,16.10
2019,07,13,01,34,16.10
2019,07,13,01,35,16.10
2019,07,13,01,36,16.10
2019,07,13,01,37,16.10
2019,07,13,01,38,16.10
2019,07,13,01,39,16.10
2019,07,13,01,40,16.10
2019,07,13,01,41,16.20
2019,07,13,01,42,16.20
2019,07,13,01,43,16.20
2019,07,13,01,44,16.20
2019,07,13,01,45,16.20
2019,07,13,01,46,16.20
2019,07,13,01,47,16.20
2019,07,13,01,48,16.20
2019,07,13,01,49,16.20
2019,07,13,01,50,16.20
2019,07,13,01,51,16.20
2019,07,13,01,52,16.20
2019,07,13,01,53,16.20
2019,07,13,01,54,16.20
2019,07,13,01,55,16.20
2019,07,13,01,56,16.20
2019,07,13,01,57,16.20
2019,07,13,01,58,16.20
2019,07,13,01,59,16.20
2019,07,13,02,00,16.20
2019,07,13,02,01,16.20
2019,07,13,02,02,16.30
2019,07,13,02,03,16.30
2019,07,13,02,04,16.30
2019,07,13,02,05,16.30
2019,07,13,02,06,16.30
2019,07,13,02,07,16.30
2019,07,13,02,08,16.30
2019,07,13,02,09,16.30
2019,07,13,02,10,16.30
2019,07,13,02,11,16.30
2019,07,13,02,12,16.30
2019,07,13,02,13,16.30
2019,07,13,02,14,16.30
2019,07,13,02,15,16.30
2019,07,13,02,16,16.30
2019,07,13,02,17,16.30
2019,07,13,02,18,16.30
2019,07,13,02,19,16.30
2019,07,13,02,20,16.30
2019,07,13,02,21,16.30
2019,07,13,02,22,16.30
2019,07,13,02,23,16.30
2019,07,13,02,24,16.30
2019,07,13,02,25,16.30
2019,07,13,02,26,16.30
2019,07,13,02,27,16.30
2019,07,13,02,28,16.30
2019,07,13,02,29,16.40
2019,07,13,02,30,16.40
2019,07,13,02,31,16.40
2019,07,13,02,32,16.40
2019,07,13,02,33,16.40
2019,07,13,02,34,16.40
2019,07,13,02,35,16.40
2019,07,13,02,36,16.40
2019,07,13,02,37,16.40
2019,07,13,02,38,16.40
2019,07,13,02,39,16.40
2019,07,13,02,40,16.40
2019,07,13,02,41,16.40
2019,07,13,02,42,16.40
2019,07,13,02,43,16.40
2019,07,13,02,44,16.40
2019,07,13,02,45,16.40
2019,07,13,02,46,16.50
2019,07,13,02,47,16.50
2019,07,13,02,48,16.50
2019,07,13,02,49,16.50
2019,07,13,02,50,16.50
2019,07,13,02,51,16.60
2019,07,13,02,52,16.60
2019,07,13,02,53,16.60
2019,07,13,02,54,16.60
2019,07,13,02,55,16.60
2019,07,13,02,56,16.60
2019,07,13,02,57,16.60
2019,07,13,02,58,16.60
2019,07,13,02,59,16.60
2019,07,13,03,00,16.60
2019,07,13,03,01,16.60
2019,07,13,03,02,16.60
2019,07,13,03,03,16.60
2019,07,13,03,04,16.60
2019,07,13,03,05,16.60
2019,07,13,03,06,16.60
2019,07,13,03,07,16.60
2019,07,13,03,08,16.60
2019,07,13,03,09,16.60
2019,07,13,03,10,16.60
2019,07,13,03,11,16.50
2019,07,13,03,12,16.50
2019,07,13,03,13,16.50
2019,07,13,03,14,16.50
2019,07,13,03,15,16.50
2019,07,13,03,16,16.50
2019,07,13,03,17,16.50
2019,07,13,03,18,16.50
2019,07,13,03,19,16.50
2019,07,13,03,20,16.50
2019,07,13,03,21,16.50
2019,07,13,03,22,16.40
2019,07,13,03,23,16.40
2019,07,13,03,24,16.40
2019,07,13,03,25,16.40
2019,07,13,03,26,16.40
2019,07,13,03,27,16.40
2019,07,13,03,28,16.40
2019,07,13,03,29,16.40
2019,07,13,03,30,16.30
2019,07,13,03,31,16.30
2019,07,13,03,32,16.30
2019,07,13,03,33,16.30
2019,07,13,03,34,16.30
2019,07,13,03,35,16.30
2019,07,13,03,36,16.30
2019,07,13,03,37,16.30
2019,07,13,03,38,16.30
2019,07,13,03,39,16.20
2019,07,13,03,40,16.20
2019,07,13,03,41,16.20
2019,07,13,03,42,16.20
2019,07,13,03,43,16.20
2019,07,13,03,44,16.20
2019,07,13,03,45,16.20
2019,07,13,03,46,16.20
2019,07,13,03,47,16.20
2019,07,13,03,48,16.20
2019,07,13,03,49,16.10
2019,07,13,03,50,16.10
2019,07,13,03,51,16.10
2019,07,13,03,52,16.10
2019,07,13,03,53,16.10
2019,07,13,03,54,16.10
2019,07,13,03,55,16.10
2019,07,13,03,56,16.10
2019,07,13,03,57,16.10
2019,07,13,03,58,16.10
2019,07,13,03,59,16.10
2019,07,13,04,00,16.10
2019,07,13,04,01,16.00
2019,07,13,04,02,16.00
2019,07,13,04,03,16.00
2019,07,13,05,04,15.80
2019,07,13,05,05,15.80
2019,07,13,05,06,15.80
2019,07,13,05,07,15.80
2019,07,13,05,08,15.80
2019,07,13,05,09,15.80
2019,07,13,05,10,15.80
2019,07,13,05,11,15.80
2019,07,13,05,12,15.80
2019,07,13,05,13,15.80
2019,07,13,05,14,15.80
2019,07,13,05,15,15.80
2019,07,13,05,16,15.80
2019,07,13,05,17,15.80
2019,07,13,05,18,15.80
2019,07,13,05,19,15.80
2019,07,13,05,20,15.80
2019,07,13,05,21,15.80
2019,07,13,05,22,15.80
2019,07,13,05,23,15.80
2019,07,13,05,24,15.80
2019,07,13,05,25,15.80
2019,07,13,05,26,15.80
2019,07,13,05,27,15.80
2019,07,13,05,28,15.80
2019,07,13,05,29,15.80
2019,07,13,05,30,15.80
2019,07,13,05,31,15.80
2019,07,13,05,32,15.80
2019,07,13,05,33,15.80
2019,07,13,05,34,15.80
2019,07,13,05,35,15.80
2019,07,13,05,36,15.80
2019,07,13,05,37,15.80
2019,07,13,05,38,15.80
2019,07,13,05,39,15.80
2019,07,13,05,40,15.80
2019,07,13,05,41,15.80
2019,07,13,05,42,15.80
2019,07,13,05,43,15.80
2019,07,13,05,44,15.80
2019,07,13,05,45,15.80
2019,07,13,05,46,15.80
2019,07,13,05,47,15.80
2019,07,13,05,48,15.80
2019,07,13,05,49,15.80
2019,07,13,05,50,15.80
2019,07,13,05,51,15.80
2019,07,13,05,52,15.80
2019,07,13,05,53,15.80
2019,07,13,05,54,15.80
2019,07,13,05,55,15.80
2019,07,13,05,56,15.80
2019,07,13,05,57,15.70
2019,07,13,05,58,15.70
2019,07,13,05,59,15.70
2019,07,13,06,00,15.70
2019,07,13,06,01,15.70
2019,07,13,06,02,15.70
2019,07,13,06,03,15.70
2019,07,13,06,04,15.70
2019,07,13,06,05,15.60
2019,07,13,06,06,15.60
2019,07,13,06,07,15.60
2019,07,13,06,08,15.60
2019,07,13,06,09,15.60
2019,07,13,06,10,15.60
2019,07,13,06,11,15.60
2019,07,13,06,12,15.60
2019,07,13,06,13,15.60
2019,07,13,06,14,15.50
2019,07,13,06,15,15.50
2019,07,13,06,16,15.50
2019,07,13,06,17,15.40
2019,07,13,06,18,15.40
2019,07,13,06,19,15.40
2019,07,13,06,20,15.40
2019,07,13,06,21,15.30
2019,07,13,06,22,15.30
2019,07,13,06,23,15.30
2019,07,13,06,24,15.30
2019,07,13,06,25,15.30
2019,07,13,06,26,15.30
2019,07,13,06,27,15.20
2019,07,13,06,28,15.20
2019,07,13,06,29,15.20
2019,07,13,06,30,15.20
2019,07,13,06,31,15.20
2019,07,13,06,32,15.20
2019,07,13,06,33,15.20
2019,07,13,06,34,15.20
2019,07,13,06,35,15.20
2019,07,13,06,36,15.20
2019,07,13,06,37,15.20
2019,07,13,06,38,15.20
2019,07,13,06,39,15.30
2019,07,13,06,40,15.30
2019,07,13,06,41,15.30
2019,07,13,06,42,15.30
2019,07,13,06,43,15.30
2019,07,13,06,44,15.30
2019,07,13,06,45,15.30
2019,07,13,06,46,15.30
2019,07,13,06,47,15.30
2019,07,13,06,48,15.30
2019,07,13,06,49,15.30
2019,07,13,06,50,15.40
2019,07,13,06,51,15.40
2019,07,13,06,52,15.40
2019,07,13,06,53,15.40
2019,07,13,06,54,15.40
2019,07,13,06,55,15.50
2019,07,13,06,56,15.50
2019,07,13,06,57,15.60
2019,07,13,06,58,15.60
2019,07,13,06,59,15.60
2019,07,13,07,00,15.60
2019,07,13,07,01,15.70
2019,07,13,07,02,15.70
2019,07,13,07,03,15.70
2019,07,13,07,04,15.70
2019,07,13,07,05,15.70
2019,07,13,07,06,15.70
2019,07,13,07,07,15.70
2019,07,13,07,08,15.80
2019,07,13,07,09,15.80
2019,07,13,07,10,15.80
2019,07,13,07,11,15.80
2019,07,13,07,12,15.80
2019,07,13,07,13,15.80
2019,07,13,07,14,15.90
2019,07,13,07,15,15.90
2019,07,13,07,16,15.90
2019,07,13,07,17,15.90
2019,07,13,07,18,15.90
2019,07,13,07,19,16.00
2019,07,13,07,20,16.00
2019,07,13,07,21,16.00
2019,07,13,07,22,16.10
2019,07,13,07,23,16.10
2019,07,13,07,24,16.20
2019,07,13,07,25,16.20
2019,07,13,07,26,16.30
2019,07,13,07,27,16.30
2019,07,13,07,28,16.40
2019,07,13,07,29,16.40
2019,07,13,07,30,16.40
2019,07,13,07,31,16.50
2019,07,13,07,32,16.60
2019,07,13,07,33,16.60
2019,07,13,07,34,16.60
2019,07,13,07,35,16.70
2019,07,13,07,36,16.70
2019,07,13,07,37,16.70
2019,07,13,07,38,16.80
2019,07,13,07,39,16.80
2019,07,13,07,40,16.90
2019,07,13,07,41,16.90
2019,07,13,07,42,17.00
2019,07,13,07,43,17.00
2019,07,13,07,44,17.10
2019,07,13,07,45,17.20
2019,07,13,07,46,17.20
2019,07,13,07,47,17.30
2019,07,13,07,48,17.30
2019,07,13,07,49,17.40
2019,07,13,07,50,17.50
2019,07,13,07,51,17.50
2019,07,13,07,52,17.60
2019,07,13,07,53,17.70
2019,07,13,07,54,17.70
2019,07,13,07,55,17.70
2019,07,13,07,56,17.80
2019,07,13,07,57,17.80
2019,07,13,07,58,17.90
2019,07,13,07,59,17.90
2019,07,13,08,00,17.90
2019,07,13,08,01,17.90
2019,07,13,08,02,18.00
2019,07,13,08,03,18.00
2019,07,13,08,04,18.00
2019,07,13,08,05,18.10
2019,07,13,08,06,18.10
2019,07,13,08,07,18.10
2019,07,13,08,08,18.10
2019,07,13,08,09,18.20
2019,07,13,08,10,18.20
2019,07,13,08,11,18.20
2019,07,13,08,12,18.20
2019,07,13,08,13,18.20
2019,07,13,08,14,18.20
2019,07,13,08,15,18.20
2019,07,13,08,16,18.20
2019,07,13,08,17,18.20
2019,07,13,08,18,18.30
2019,07,13,08,19,18.30
2019,07,13,08,20,18.30
2019,07,13,08,21,18.30
2019,07,13,08,22,18.40
2019,07,13,08,23,18.40
2019,07,13,08,24,18.40
2019,07,13,08,25,18.50
2019,07,13,08,26,18.50
2019,07,13,08,27,18.50
2019,07,13,08,28,18.60
2019,07,13,08,29,18.60
2019,07,13,08,30,18.60
2019,07,13,08,31,18.60
2019,07,13,08,32,18.60
2019,07,13,08,33,18.70
2019,07,13,08,34,18.70
2019,07,13,08,35,18.70
2019,07,13,08,36,18.80
2019,07,13,08,37,18.80
2019,07,13,08,38,18.80
2019,07,13,08,39,18.90
2019,07,13,08,40,18.90
2019,07,13,08,41,18.90
2019,07,13,08,42,19.00
2019,07,13,08,43,19.00
2019,07,13,08,44,19.00
2019,07,13,08,45,19.10
2019,07,13,08,46,19.10
2019,07,13,08,47,19.20
2019,07,13,08,48,19.20
2019,07,13,08,49,19.20
2019,07,13,08,50,19.30
2019,07,13,08,51,19.30
2019,07,13,08,52,19.30
2019,07,13,08,53,19.30
2019,07,13,08,54,19.30
2019,07,13,08,55,19.30
2019,07,13,08,56,19.30
2019,07,13,08,57,19.30
2019,07,13,08,58,19.20
2019,07,13,08,59,19.20
2019,07,13,09,00,19.20
2019,07,13,09,01,19.20
2019,07,13,09,02,19.20
2019,07,13,09,03,19.10
2019,07,13,09,04,19.10
2019,07,13,09,05,19.10
2019,07,13,09,06,19.10
2019,07,13,09,07,19.10
2019,07,13,09,08,19.10
2019,07,13,09,09,19.10
2019,07,13,09,10,19.20
2019,07,13,09,11,19.20
2019,07,13,09,12,19.20
2019,07,13,09,13,19.30
2019,07,13,09,14,19.30
2019,07,13,09,15,19.30
2019,07,13,09,16,19.30
2019,07,13,09,17,19.40
2019,07,13,09,18,19.40
2019,07,13,09,19,19.50
2019,07,13,09,20,19.60
2019,07,13,09,21,19.60
2019,07,13,09,22,19.80
2019,07,13,09,23,19.90
2019,07,13,09,24,20.00
2019,07,13,09,25,20.20
2019,07,13,09,26,20.30
2019,07,13,09,27,20.50
2019,07,13,09,28,20.60
2019,07,13,09,29,20.70
2019,07,13,09,30,20.80
2019,07,13,09,31,20.90
2019,07,13,09,32,20.90
2019,07,13,09,33,20.90
2019,07,13,09,34,21.00
2019,07,13,09,35,21.10
2019,07,13,09,36,21.10
2019,07,13,09,37,21.20
2019,07,13,09,38,21.30
2019,07,13,09,39,21.30
2019,07,13,09,40,21.40
2019,07,13,09,41,21.50
2019,07,13,09,42,21.60
2019,07,13,09,43,21.60
2019,07,13,09,44,21.60
2019,07,13,09,45,21.70
2019,07,13,09,46,21.70
2019,07,13,09,47,21.80
2019,07,13,09,48,21.80
2019,07,13,09,49,21.90
2019,07,13,09,50,21.90
2019,07,13,09,51,22.00
2019,07,13,09,52,21.90
2019,07,13,09,53,21.90
2019,07,13,09,54,21.90
2019,07,13,09,55,21.90
2019,07,13,09,56,21.90
2019,07,13,09,57,21.90
2019,07,13,09,58,21.90
2019,07,13,09,59,21.90
2019,07,13,10,00,21.90
2019,07,13,10,01,21.90
2019,07,13,10,02,21.80
2019,07,13,10,03,21.80
2019,07,13,10,04,21.70
2019,07,13,10,05,21.60
2019,07,13,10,06,21.50
2019,07,13,10,07,21.50
2019,07,13,10,08,21.40
2019,07,13,10,09,21.30
2019,07,13,10,10,21.30
2019,07,13,10,11,21.20
2019,07,13,10,12,21.20
2019,07,13,10,13,21.20
2019,07,13,10,14,21.20
2019,07,13,10,15,21.10
2019,07,13,10,16,21.10
2019,07,13,10,17,21.10
2019,07,13,10,18,21.00
2019,07,13,10,19,21.00
2019,07,13,10,20,21.00
2019,07,13,10,21,21.00
2019,07,13,10,22,21.00
2019,07,13,10,23,21.00
2019,07,13,10,24,21.10
2019,07,13,10,25,21.20
2019,07,13,10,26,21.20
2019,07,13,10,27,21.20
2019,07,13,10,28,21.30
2019,07,13,10,29,21.30
2019,07,13,10,30,21.30
2019,07,13,10,31,21.30
2019,07,13,10,32,21.30
2019,07,13,10,33,21.40
2019,07,13,10,34,21.40
2019,07,13,10,35,21.50
2019,07,13,10,36,21.60
2019,07,13,10,37,21.70
2019,07,13,10,38,21.80
2019,07,13,10,39,22.00
2019,07,13,10,40,22.10
2019,07,13,10,41,22.20
2019,07,13,10,42,22.30
2019,07,13,10,43,22.40
2019,07,13,10,44,22.40
2019,07,13,10,45,22.50
2019,07,13,10,46,22.50
2019,07,13,10,47,22.60
2019,07,13,10,48,22.70
2019,07,13,10,49,22.80
2019,07,13,10,50,22.90
2019,07,13,10,51,23.00
2019,07,13,10,52,23.10
2019,07,13,10,53,23.10
2019,07,13,10,54,23.20
2019,07,13,10,55,23.20
2019,07,13,10,56,23.20
2019,07,13,10,57,23.20
2019,07,13,10,58,23.20
2019,07,13,10,59,23.30
2019,07,13,11,00,23.30
2019,07,13,11,01,23.40
2019,07,13,11,02,23.50
2019,07,13,11,03,23.60
2019,07,13,11,04,23.70
2019,07,13,11,05,23.70
2019,07,13,11,06,23.70
2019,07,13,11,07,23.70
2019,07,13,11,08,23.80
2019,07,13,11,09,23.80
2019,07,13,11,10,23.80
2019,07,13,11,11,23.80
2019,07,13,11,12,23.70
2019,07,13,11,13,23.70
2019,07,13,11,14,23.70
2019,07,13,11,15,23.70
2019,07,13,11,16,23.70
2019,07,13,11,17,23.70
2019,07,13,11,18,23.80
2019,07,13,11,19,23.80
2019,07,13,11,20,23.80
2019,07,13,11,21,23.80
2019,07,13,11,22,23.90
2019,07,13,11,23,24.00
2019,07,13,11,24,24.10
2019,07,13,11,25,24.20
2019,07,13,11,26,24.30
2019,07,13,11,27,24.30
2019,07,13,11,28,24.40
2019,07,13,11,29,24.40
2019,07,13,11,30,24.40
2019,07,13,11,31,24.30
2019,07,13,11,32,24.30
2019,07,13,11,33,24.30
2019,07,13,11,34,24.30
2019,07,13,11,35,24.30
2019,07,13,11,36,24.30
2019,07,13,11,37,24.30
2019,07,13,11,38,24.40
2019,07,13,11,39,24.50
2019,07,13,11,40,24.60
2019,07,13,11,41,24.70
2019,07,13,11,42,24.70
2019,07,13,11,43,24.70
2019,07,13,11,44,24.70
2019,07,13,11,45,24.70
2019,07,13,11,46,24.70
2019,07,13,11,47,24.70
2019,07,13,11,48,24.60
2019,07,13,11,49,24.60
2019,07,13,11,50,24.60
2019,07,13,11,51,24.50
2019,07,13,11,52,24.60
2019,07,13,11,53,24.60
2019,07,13,11,54,24.70
2019,07,13,11,55,24.80
2019,07,13,11,56,24.80
2019,07,13,11,57,24.80
2019,07,13,11,58,24.70
2019,07,13,11,59,24.70
2019,07,13,12,00,24.70
2019,07,13,12,01,24.70
2019,07,13,12,02,24.70
2019,07,13,12,03,24.60
2019,07,13,12,04,24.60
2019,07,13,12,05,24.60
2019,07,13,12,06,24.50
2019,07,13,12,07,24.40
2019,07,13,12,08,24.40
2019,07,13,12,09,24.30
2019,07,13,12,10,24.30
2019,07,13,12,11,24.20
2019,07,13,12,12,24.10
2019,07,13,12,13,24.10
2019,07,13,12,14,24.00
2019,07,13,12,15,23.90
2019,07,13,12,16,23.80
2019,07,13,12,17,23.80
2019,07,13,12,18,23.80
2019,07,13,12,19,23.80
2019,07,13,12,20,23.70
2019,07,13,12,21,23.70
2019,07,13,12,22,23.70
2019,07,13,12,23,23.70
2019,07,13,12,24,23.60
2019,07,13,12,25,23.50
2019,07,13,12,26,23.50
2019,07,13,12,27,23.40
2019,07,13,12,28,23.40
2019,07,13,12,29,23.50
2019,07,13,12,30,23.60
2019,07,13,12,31,23.60
2019,07,13,12,32,23.70
2019,07,13,12,33,23.80
2019,07,13,12,34,23.90
2019,07,13,12,35,24.00
2019,07,13,12,36,24.10
2019,07,13,12,37,24.20
2019,07,13,12,38,24.20
2019,07,13,12,39,24.10
2019,07,13,12,40,24.10
2019,07,13,12,41,24.00
2019,07,13,12,42,23.90
2019,07,13,12,43,23.80
2019,07,13,12,44,23.70
2019,07,13,12,45,23.60
2019,07,13,12,46,23.60
2019,07,13,12,47,23.50
2019,07,13,12,48,23.60
2019,07,13,12,49,23.60
2019,07,13,12,50,23.70
2019,07,13,12,51,23.70
2019,07,13,12,52,23.70
2019,07,13,12,53,23.80
2019,07,13,12,54,23.70
2019,07,13,12,55,23.70
2019,07,13,12,56,23.70
2019,07,13,12,57,23.60
2019,07,13,12,58,23.60
2019,07,13,12,59,23.60
2019,07,13,13,00,23.60
2019,07,13,13,01,23.60
2019,07,13,13,02,23.50
2019,07,13,13,03,23.50
2019,07,13,13,04,23.60
2019,07,13,13,05,23.50
2019,07,13,13,06,23.50
2019,07,13,13,07,23.50
2019,07,13,13,08,23.50
2019,07,13,13,09,23.50
2019,07,13,13,10,23.50
2019,07,13,13,11,23.40
2019,07,13,13,12,23.40
2019,07,13,13,13,23.40
2019,07,13,13,14,23.50
2019,07,13,13,15,23.60
2019,07,13,13,16,23.80
2019,07,13,13,17,23.90
2019,07,13,13,18,24.00
2019,07,13,13,19,24.10
2019,07,13,13,20,24.10
2019,07,13,13,21,24.10
2019,07,13,13,22,24.10
2019,07,13,13,23,24.10
2019,07,13,13,24,24.00
2019,07,13,13,25,24.00
2019,07,13,13,26,24.00
2019,07,13,13,27,24.10
2019,07,13,13,28,24.20
2019,07,13,13,29,24.30
2019,07,13,13,30,24.40
2019,07,13,13,31,24.50
2019,07,13,13,32,24.50
2019,07,13,13,33,24.60
2019,07,13,13,34,24.60
2019,07,13,13,35,24.60
2019,07,13,13,36,24.70
2019,07,13,13,37,24.70
2019,07,13,13,38,24.70
2019,07,13,13,39,24.70
2019,07,13,13,40,24.80
2019,07,13,13,41,24.80
2019,07,13,13,42,24.80
2019,07,13,13,43,24.90
2019,07,13,13,44,24.90
2019,07,13,13,45,24.90
2019,07,13,13,46,24.90
2019,07,13,13,47,24.90
2019,07,13,13,48,24.90
2019,07,13,13,49,24.90
2019,07,13,13,50,24.80
2019,07,13,13,51,24.70
2019,07,13,13,52,24.70
2019,07,13,13,53,24.70
2019,07,13,13,54,24.80
2019,07,13,13,55,24.80
2019,07,13,13,56,24.80
2019,07,13,13,57,24.80
2019,07,13,13,58,24.80
2019,07,13,13,59,24.80
2019,07,13,14,00,24.80
2019,07,13,14,01,24.90
2019,07,13,14,02,24.90
2019,07,13,14,03,25.00
2019,07,13,14,04,25.10
2019,07,13,14,05,25.20
2019,07,13,14,06,25.20
2019,07,13,14,07,25.20
2019,07,13,14,08,25.30
2019,07,13,14,09,25.30
2019,07,13,14,10,25.30
2019,07,13,14,11,25.30
2019,07,13,14,12,25.30
2019,07,13,14,13,25.30
2019,07,13,14,14,25.40
2019,07,13,14,15,25.50
2019,07,13,14,16,25.50
2019,07,13,14,17,25.50
2019,07,13,14,18,25.40
2019,07,13,14,19,25.40
2019,07,13,14,20,25.50
2019,07,13,14,21,25.50
2019,07,13,14,22,25.50
2019,07,13,14,23,25.40
2019,07,13,14,24,25.40
2019,07,13,14,25,25.40
2019,07,13,14,26,25.40
2019,07,13,14,27,25.40
2019,07,13,14,28,25.30
2019,07,13,14,29,25.30
2019,07,13,14,30,25.20
2019,07,13,14,31,25.20
2019,07,13,14,32,25.20
2019,07,13,14,33,25.20
2019,07,13,14,34,25.20
2019,07,13,14,35,25.30
2019,07,13,14,36,25.30
2019,07,13,14,37,25.40
2019,07,13,14,38,25.40
2019,07,13,14,39,25.40
2019,07,13,14,40,25.40
2019,07,13,14,41,25.40
2019,07,13,14,42,25.40
2019,07,13,14,43,25.30
2019,07,13,14,44,25.20
2019,07,13,14,45,25.10
2019,07,13,14,46,25.10
2019,07,13,14,47,25.10
2019,07,13,14,48,25.10
2019,07,13,14,49,25.10
2019,07,13,14,50,25.10
2019,07,13,14,51,25.10
2019,07,13,14,52,25.00
2019,07,13,14,53,25.00
2019,07,13,14,54,24.90
2019,07,13,14,55,24.80
2019,07,13,14,56,24.80
2019,07,13,14,57,24.80
2019,07,13,14,58,24.60
2019,07,13,14,59,24.60
2019,07,13,15,00,24.50
2019,07,13,15,01,24.40
2019,07,13,15,02,24.40
2019,07,13,15,03,24.40
2019,07,13,15,04,24.30
2019,07,13,15,05,24.30
2019,07,13,15,06,24.20
2019,07,13,15,07,24.20
2019,07,13,15,08,24.20
2019,07,13,15,09,24.20
2019,07,13,15,10,24.20
2019,07,13,15,11,24.20
2019,07,13,15,12,24.20
2019,07,13,15,13,24.20
2019,07,13,15,14,24.20
2019,07,13,15,15,24.20
2019,07,13,15,16,24.20
2019,07,13,15,17,24.20
2019,07,13,15,18,24.20
2019,07,13,15,19,24.20
2019,07,13,15,20,24.20
2019,07,13,15,21,24.20
2019,07,13,15,22,24.20
2019,07,13,15,23,24.10
2019,07,13,15,24,24.10
2019,07,13,15,25,24.10
2019,07,13,15,26,24.10
2019,07,13,15,27,24.10
2019,07,13,15,28,24.10
2019,07,13,15,29,24.10
2019,07,13,15,30,24.10
2019,07,13,15,31,24.10
2019,07,13,15,32,24.20
2019,07,13,15,33,24.20
2019,07,13,15,34,24.20
2019,07,13,15,35,24.10
2019,07,13,15,36,24.10
2019,07,13,15,37,24.10
2019,07,13,15,38,24.00
2019,07,13,15,39,24.00
2019,07,13,15,40,23.90
2019,07,13,15,41,23.90
2019,07,13,15,42,23.90
2019,07,13,15,43,23.90
2019,07,13,15,44,23.90
2019,07,13,15,45,23.80
2019,07,13,15,46,23.70
2019,07,13,15,47,23.70
2019,07,13,15,48,23.70
2019,07,13,15,49,23.60
2019,07,13,15,50,23.50
2019,07,13,15,51,23.40
2019,07,13,15,52,23.40
2019,07,13,15,53,23.40
2019,07,13,15,54,23.40
2019,07,13,15,55,23.40
2019,07,13,15,56,23.40
2019,07,13,15,57,23.30
2019,07,13,15,58,23.20
2019,07,13,15,59,23.10
2019,07,13,16,00,23.10
2019,07,13,16,01,23.00
2019,07,13,16,02,23.00
2019,07,13,16,03,22.90
2019,07,13,16,04,22.90
2019,07,13,16,05,22.90
2019,07,13,16,06,22.90
2019,07,13,16,07,22.90
2019,07,13,16,08,23.00
2019,07,13,16,09,23.00
2019,07,13,16,10,23.00
2019,07,13,16,11,22.90
2019,07,13,16,12,22.90
2019,07,13,16,13,22.90
2019,07,13,16,14,22.80
2019,07,13,16,15,22.70
2019,07,13,16,16,22.60
2019,07,13,16,17,22.60
2019,07,13,16,18,22.50
2019,07,13,16,19,22.50
2019,07,13,16,20,22.40
2019,07,13,16,21,22.40
2019,07,13,16,22,22.40
2019,07,13,16,23,22.40
2019,07,13,16,24,22.40
2019,07,13,16,25,22.30
2019,07,13,16,26,22.30
2019,07,13,16,27,22.20
2019,07,13,16,28,22.20
2019,07,13,16,29,22.20
2019,07,13,16,30,22.20
2019,07,13,16,31,22.20
2019,07,13,16,32,22.30
2019,07,13,16,33,22.30
2019,07,13,16,34,22.30
2019,07,13,16,35,22.40
2019,07,13,16,36,22.40
2019,07,13,16,37,22.40
2019,07,13,16,38,22.50
2019,07,13,16,39,22.50
2019,07,13,16,40,22.50
2019,07,13,16,41,22.60
2019,07,13,16,42,22.60
2019,07,13,16,43,22.60
2019,07,13,16,44,22.60
2019,07,13,16,45,22.70
2019,07,13,16,46,22.80
2019,07,13,16,47,22.90
2019,07,13,16,48,22.90
2019,07,13,16,49,23.00
2019,07,13,16,50,23.10
2019,07,13,16,51,23.10
2019,07,13,16,52,23.20
2019,07,13,16,53,23.30
2019,07,13,16,54,23.40
2019,07,13,16,55,23.50
2019,07,13,16,56,23.50
2019,07,13,16,57,23.50
2019,07,13,16,58,23.50
2019,07,13,16,59,23.50
2019,07,13,17,00,23.40
2019,07,13,17,01,23.30
2019,07,13,17,02,23.30
2019,07,13,17,03,23.40
2019,07,13,17,04,23.40
2019,07,13,17,05,23.40
2019,07,13,17,06,23.30
2019,07,13,17,07,23.30
2019,07,13,17,08,23.30
2019,07,13,17,09,23.20
2019,07,13,17,10,23.20
2019,07,13,17,11,23.20
2019,07,13,17,12,23.10
2019,07,13,17,13,23.00
2019,07,13,17,14,22.80
2019,07,13,17,15,22.70
2019,07,13,17,16,22.60
2019,07,13,17,17,22.60
2019,07,13,17,18,22.60
2019,07,13,17,19,22.60
2019,07,13,17,20,22.60
2019,07,13,17,21,22.70
2019,07,13,17,22,22.70
2019,07,13,17,23,22.70
2019,07,13,17,24,22.70
2019,07,13,17,25,22.80
2019,07,13,17,26,22.80
2019,07,13,17,27,22.80
2019,07,13,17,28,22.80
2019,07,13,17,29,22.90
2019,07,13,17,30,22.90
2019,07,13,17,31,22.90
2019,07,13,17,32,22.90
2019,07,13,17,33,22.90
2019,07,13,17,34,22.90
2019,07,13,17,35,22.90
2019,07,13,17,36,22.90
2019,07,13,17,37,23.00
2019,07,13,17,38,23.10
2019,07,13,17,39,23.10
2019,07,13,17,40,23.10
2019,07,13,17,41,23.10
2019,07,13,17,42,23.10
2019,07,13,17,43,23.20
2019,07,13,17,44,23.20
2019,07,13,17,45,23.20
2019,07,13,17,46,23.20
2019,07,13,17,47,23.20
2019,07,13,17,48,23.20
2019,07,13,17,49,23.20
2019,07,13,17,50,23.20
2019,07,13,17,51,23.20
2019,07,13,17,52,23.20
2019,07,13,17,53,23.20
2019,07,13,17,54,23.20
2019,07,13,17,55,23.10
2019,07,13,17,56,23.10
2019,07,13,17,57,23.10
2019,07,13,17,58,23.10
2019,07,13,17,59,23.10
2019,07,13,18,00,23.10
2019,07,13,18,01,23.10
2019,07,13,18,02,23.10
2019,07,13,18,03,23.10
2019,07,13,18,04,23.00
2019,07,13,18,05,23.00
2019,07,13,18,06,22.90
2019,07,13,18,07,22.90
2019,07,13,18,08,22.80
2019,07,13,18,09,22.80
2019,07,13,18,10,22.80
2019,07,13,18,11,22.80
2019,07,13,18,12,22.80
2019,07,13,18,13,22.70
2019,07,13,18,14,22.70
2019,07,13,18,15,22.70
2019,07,13,18,16,22.70
2019,07,13,18,17,22.70
2019,07,13,18,18,22.70
2019,07,13,18,19,22.60